DW8913 Weather Reports


time (UTC)temp
F
wind
direction
speed
knots
gust
knots
rain 1hr
in
rain 24hr
in
rain mn
in
humidity
%
barometer
mb
20260504214616 60 89 0.9 5.2 0.00 0.00 0.00 75 1010.8
20260504213034 60 86 0.9 5.2 0.00 0.00 0.00 75 1010.9
20260504211505 61 75 1.7 5.2 0.00 0.00 0.00 74 1011.1
20260504210049 61 89 1.7 7.0 0.00 0.00 0.00 74 1011.2
20260504204523 60 186 2.6 9.6 0.00 0.00 0.00 76 1011.2
20260504203107 59 163 2.6 7.8 0.00 0.00 0.00 77 1011.4
20260504201529 60 158 2.6 7.8 0.00 0.00 0.00 75 1011.6
20260504200002 61 100 1.7 7.0 0.00 0.00 0.00 73 1011.8
20260504194547 62 181 0.9 7.0 0.00 0.00 0.00 73 1012.0
20260504193019 62 122 1.7 7.0 0.00 0.00 0.00 72 1012.2
20260504191604 62 80 1.7 6.1 0.00 0.00 0.00 71 1012.3
20260504190027 62 136 1.7 7.8 0.00 0.00 0.00 71 1012.4
20260504184638 63 33 1.7 6.1 0.00 0.00 0.00 71 1012.8
20260504183033 63 82 2.6 8.7 0.00 0.00 0.00 70 1012.7
20260504181507 63 217 1.7 5.2 0.00 0.00 0.00 70 1012.9
20260504180049 63 75 0.9 7.8 0.00 0.00 0.00 71 1012.9
20260504174515 63 166 1.7 6.1 0.00 0.00 0.00 68 1013.1
20260504173056 63 173 1.7 7.0 0.00 0.00 0.00 69 1013.1
20260504171522 63 186 1.7 8.7 0.00 0.00 0.00 69 1013.3
20260504110107 53 122 0.9 3.5 0.00 0.00 0.00 77 1015.7
20260504081515 50 98 0.0 4.3 0.00 0.00 0.00 71 1015.7
20260504044517 50 134 0.0 1.7 0.00 0.00 0.00 67 1015.2
20260504043106 50 150 0.0 1.7 0.00 0.00 0.00 66 1015.0
20260504041530 50 126 0.0 2.6 0.00 0.00 0.00 69 1015.1
20260504040106 50 92 0.0 0.9 0.00 0.00 0.00 67 1014.9
20260504034541 50 141 0.0 1.7 0.00 0.00 0.00 68 1014.8
20260504033019 50 113 0.0 0.9 0.00 0.00 0.00 68 1014.7
20260504031559 50 131 0.0 2.6 0.00 0.00 0.00 68 1014.7
20260504030025 50 131 0.0 0.9 0.00 0.00 0.00 68 1014.6
20260504024603 49 152 0.0 0.9 0.00 0.00 0.00 69 1014.6
20260504023031 49 214 0.0 0.0 0.00 0.00 0.00 70 1014.7
20260504021502 49 228 0.0 0.0 0.00 0.00 0.00 69 1014.6
20260504020048 50 228 0.0 0.0 0.00 0.00 0.00 69 1014.5
20260504014510 50 228 0.0 0.0 0.00 0.00 0.00 64 1014.4
20260504013105 50 288 0.0 0.0 0.00 0.00 0.00 62 1014.4
20260504011525 50 288 0.0 0.0 0.00 0.00 0.00 61 1014.3
20260504010104 50 288 0.0 0.0 0.00 0.00 0.00 61 1014.1
20260504004540 51 288 0.0 0.0 0.00 0.00 0.00 60 1013.8
20260504003108 51 285 0.0 0.0 0.00 0.00 0.00 57 1013.6
20260504001546 52 284 0.0 0.0 0.00 0.00 0.00 52 1013.4
20260504000010 53 284 0.0 0.0 0.00 0.00 0.00 52 1013.3
20260503234554 55 281 0.0 0.9 0.00 0.00 0.00 46 1013.3
20260503233029 56 348 0.0 2.6 0.00 0.00 0.00 42 1013.3
20260503231604 57 58 0.0 1.7 0.00 0.00 0.00 40 1013.1
20260503230033 58 200 0.9 4.3 0.00 0.00 0.00 39 1013.2
20260503224611 58 228 0.9 4.3 0.00 0.00 0.00 37 1013.0
20260503223039 58 310 0.9 4.3 0.00 0.00 0.00 34 1013.0
20260503221512 59 68 0.0 4.3 0.00 0.00 0.00 36 1012.9
20260503220059 59 269 1.7 6.1 0.00 0.00 0.00 34 1012.9